Regional Weather Roundup
Issued by NWS

Home | Current Version | Previous Version | Text Only | Print | Product List | Glossary Off
Versions: 1 2 3 4 5 6 7 8 9 10 11 12 13 14 15 16 17 18 19 20 21 22 23 24 25 26 27 28 29 30 31 32 33 34 35 36 37 38 39 40 41 42 43 44 45 46 47 48 49 50

000
ASUS43 KFSD 230902
RWRSD

WEATHER ROUNDUP FOR SOUTH DAKOTA
NATIONAL WEATHER SERVICE SIOUX FALLS SD
400 AM CDT TUE MAY 23 2017

NOTE: "FAIR" INDICATES FEW OR NO CLOUDS BELOW 12,000 FEET WITH NO
SIGNIFICANT WEATHER AND/OR OBSTRUCTIONS TO VISIBILITY.


SDZ001>005-009-010-012>017-231000-
NORTHWEST AND NORTH CENTRAL SOUTH DAKOTA

CITY           SKY/WX    TMP DP  RH WIND       PRES   REMARKS
BUFFALO          N/A     49  38  65 N10       30.08R
MOBRIDGE       CLOUDY    49  40  71 NW14      29.99F
$$

SDZ012>016-024>037-041>051-057-063-072>074-231000-
SOUTHWEST AND SOUTH CENTRAL SOUTH DAKOTA

CITY           SKY/WX    TMP DP  RH WIND       PRES   REMARKS
RAPID CTY ARPT CLOUDY    49  39  68 NW13      30.10F
PIERRE         CLOUDY    49  41  74 N14       29.98R
CUSTER         CLEAR     39  31  72 N8        30.15S
ELLSWORTH AFB  CLOUDY    48  40  73 NW14      30.10S
PHILIP         CLOUDY    50  44  80 NW14      30.05R
PINE RIDGE     CLOUDY    41  40  96 SW6       30.11F
SPEARFISH      FAIR      45  37  76 W7        30.16S
WINNER         CLOUDY    51  44  77 W13       29.96F
$$

SDZ004>011-016>023-039-040-231000-
NORTHEAST SOUTH DAKOTA

CITY           SKY/WX    TMP DP  RH WIND       PRES   REMARKS
ABERDEEN       CLOUDY    47  42  83 N14       29.95R
WATERTOWN      LGT RAIN  45  44  97 NW17      29.87F FOG
SISSETON         N/A     48  47  96 N14       29.88S
$$

SDZ017-020-022-023-036>040-048>070-231000-
SOUTHEAST SOUTH DAKOTA

CITY           SKY/WX    TMP DP  RH WIND       PRES   REMARKS
SIOUX FALLS    CLOUDY    47  44  90 NW14      29.90S
HURON          MOCLDY    46  45  96 NW9       29.93F
CHAMBERLAIN    CLOUDY    50  45  83 SW6       29.96S
MITCHELL       CLOUDY    49  45  86 W10       29.94S
YANKTON        CLOUDY    47  43  86 W10       29.93F
$$

ABBREVIATIONS USED IN REMARKS
   TC - TEMPERATURE IN CELSIUS
  WCI - WIND CHILL INDEX
   HX - HEAT INDEX
  VSB - VISIBILITY





USA.gov is the U.S. government's official web portal to all federal, state and local government web resources and services.